Location: Bytom
(50.3475°N, 18.9244°E)
Time: 00:01:59
(UTC+01:00)

ISS - Pass Details

Date: 30 January 2019
Orbit: 403 x 411 km, 51.6° (Epoch: 20 February)

Event Time Altitude Azimuth Distance (km) Brightness Sun altitude
Rises 19:01:49 0° 277° (W) 2,339 1.5 -23.6°
Reaches altitude 10° 19:03:55 10° 280° (W) 1,479 0.1 -24.0°
Enters shadow 19:06:01 35° 291° (WNW) 681 -2.2 -24.3°
